Regional Weather Roundup
Issued by NWS

Home | Current Version | Previous Version | Graphics & Text | Print | Product List | Glossary On
Versions: 1 2 3 4 5 6 7 8 9 10 11 12 13 14 15 16 17 18 19 20 21 22 23 24 25 26 27 28 29 30 31 32 33 34 35 36 37 38 39 40 41 42 43 44 45 46 47 48 49 50
000
ASUS45 KTFX 261419
RWRMT
MONTANA HOURLY WEATHER ROUNDUP
NATIONAL WEATHER SERVICE GREAT FALLS MT
719 AM MST MON JAN 26 2015

NOTE: "FAIR" INDICATES FEW OR NO CLOUDS BELOW 12000 FEET WITH NO
SIGNIFICANT WEATHER AND/OR OBSTRUCTIONS TO VISIBILITY.

* THESE STATIONS ARE NOT UNDER NWS QUALITY CONTROL. THEY DO NOT
   REPORT WEATHER SUCH AS PRECIPITATION OR FOG.

MTZ001>007-043-261500-
WEST OF THE DIVIDE
CITY           SKY/WX    TMP DP  RH WIND       PRES   REMARKS
KALISPELL      FOG       21  21 100 NE3       30.12F VSB M1/4
MISSOULA       PTCLDY    27  25  92 CALM      30.21F
BUTTE          CLEAR     23  19  85 CALM      30.25S
MULLAN PASS    CLOUDY    43  27  53 S10       30.16F
* ANACONDA     PTCLDY    45  27  49 SE14       N/A
* ESSEX        N/A       25  24  96 N/A        N/A
* EUREKA APT   CLOUDY    34  30  85 CALM      30.13R
* HAMILTON APT PTCLDY    32  28  85 NE5       30.17F WCI  27
* LIBBY APT    CLOUDY    28  28 100 CALM      30.17S VSB M1/4
* LINCOLN      N/A       21  20  96 NE1        N/A
* LOOKOUT PASS N/A       37  32  82 S2         N/A
* POLSON       N/A       38  30  73 S1         N/A
* RONAN APT    MOCLDY    30  30 100 N/A        N/A
* SEELEY LAKE  N/A       20  18  92 NE2        N/A
* THOMP F APT  MOCLDY    33  31  92 NE4        N/A
* YAAK HILL    N/A       33  31  92 N/A        N/A
$$

MTZ008-052>055-261500-
SOUTHWEST MONTANA
CITY           SKY/WX    TMP DP  RH WIND       PRES   REMARKS
BOZEMAN        CLEAR     25  21  85 SE8       30.23F WCI  16
DILLON         CLEAR     36  27  70 S20       30.27F WCI  25
* W YELLOWSTON PTCLDY    28  27  96 N/A        N/A
* THREE FORKS  CLEAR     36  32  85 N/A        N/A
* BOULDER HILL N/A       39  21  48 SW14       N/A   WCI  31
* MONIDA PASS  N/A       30  30 100 E9         N/A   WCI  22
* RAYNOLDS PAS N/A       28  10  47 SE19G24    N/A   WCI  15
* WHITEHALL    N/A       29  24  82 NW3G11     N/A
* WISE RIVER   N/A       24  21  88 NW4G9      N/A
$$

MTZ009>010-012-014-046-048-049-054-261500-
EAST SLOPES AND CENTRAL MONTANA
CITY           SKY/WX    TMP DP  RH WIND       PRES   REMARKS
CUT BANK       CLOUDY    48  27  44 W15       29.98S
GREAT FALLS    MOCLDY    54  28  37 SW18      30.03S
HELENA         CLEAR     32  27  82 CALM      30.18S
MALMSTROM AFB  CLOUDY    52  28  40 SW24G30   30.04R
* CONRAD       CLOUDY    43  34  71 CALM       N/A
* DEARBORN     N/A       51  27  39 SW11G16    N/A
* EAST GLACIER N/A       45  23  42 SW9        N/A
* MONARCH      N/A       52  22  31 SW10G19    N/A
* PENDROY      N/A       46  29  52 W19        N/A
* ROGERS PASS  N/A       44  23  43 SE6G12     N/A
* SWEET GRASS  N/A       52  26  36 W13        N/A
* WHITE SULPH  N/A       48  28  46 S14G22     N/A
$$

MTZ011-013-016-021-035-040-045-047-050-051-261500-
NORTH CENTRAL MONTANA
CITY           SKY/WX    TMP DP  RH WIND       PRES   REMARKS
HAVRE          CLOUDY    45  32  60 SW16      29.96F
LEWISTOWN      PTCLDY    45  28  51 NW3       30.05S
* N BAR RANCH  CLEAR     43  27  53 NW8       30.07R
* CHINOOK      MOCLDY    45  32  60 NW6       29.94S
* CHESTER      N/A       34  29  82 N/A        N/A
* DENTON       N/A       44  28  53 SW3        N/A
* GEYSER       N/A       58  26  29 SW24G30    N/A
* JUDITH GAP   N/A       49  28  44 W17        N/A
* LOMA         N/A       48  31  52 SW11G16    N/A
$$

MTZ017>020-022>027-061-062-261500-
NORTHEAST MONTANA
CITY           SKY/WX    TMP DP  RH WIND       PRES   REMARKS
GLASGOW        CLEAR     32  28  85 N6        29.95F WCI  26
GLENDIVE       PTCLDY    30  27  89 W10       30.00R WCI  21
JORDAN         CLOUDY    32  28  85 W5        29.99F WCI  27
SIDNEY         CLEAR     30  27  89 CALM      29.99R
WOLF POINT     CLEAR     30  28  92 SW6       29.98R WCI  24
* BEAVER HILL  N/A       36  31  82 W7         N/A   WCI  30
* CIRCLE       N/A       36  33  89 N/A        N/A
* LINDSAY DVD  N/A       39  31  73 W11        N/A   WCI  32
* NAVAJO       N/A       36  27  70 W12        N/A   WCI  28
* PLENTYWOOD A CLEAR     36  28  73 SW5       29.94R WCI  32
* POPLAR APT   CLEAR     32  30  92 N/A       29.97R
* SACO         N/A       26  24  92 N/A        N/A
* SCOBEY APT   CLEAR     28  21  75 N/A        N/A
$$

MTZ028>042-056>058-261500-
SOUTHCENTRAL AND SOUTHEAST MONTANA
CITY           SKY/WX    TMP DP  RH WIND       PRES   REMARKS
BAKER          PTCLDY    36  30  79 W10       29.99R WCI  29
BILLINGS       CLEAR     41  28  60 SW17      30.10R
LIVINGSTON     PTCLDY    52  25  35 SW30G43   30.15F
MILES CITY     CLOUDY    37  30  76 W6        30.03R WCI  32
* BIG TIMBER A PTCLDY    48  27  44 SW25G31   30.14F
* FORSYTH APT  PTCLDY    43  30  60 W5        30.03R
* LAUREL APT   PTCLDY    39  27  62 S7         N/A   WCI  34
* ROUNDUP APT  PTCLDY    52  27  38 N/A        N/A
* ALZADA       N/A       40  30  68 SW7        N/A   WCI  35
* HYSHAM       N/A       47  26  44 W7G12      N/A
* LAME DEER    N/A       49  28  44 W12G17     N/A
* REED POINT   N/A       53  30  41 W5G11      N/A
* ROSCOE HILL  N/A       56  15  20 S2         N/A
$$

REGIONAL REPORTS...DAKOTAS
CITY           SKY/WX    TMP DP  RH WIND       PRES   REMARKS
WILLISTON      PTCLDY    34  28  79 SW8       29.93R WCI  27
DICKINSON      PTCLDY    34  30  85 W10       29.92R WCI  26
BEACH          CLEAR     36  32  85 W10       29.97R WCI  29
CROSBY         CLEAR     36  32  85 W12       29.91R WCI  28
TIOGA          CLEAR     32  32 100 W9        29.92R WCI  24
WATFORD CITY   CLEAR     32  32 100 SW7       29.91R WCI  25
BISMARCK       PTCLDY    37  30  76 NW8       29.88R WCI  31
GRAND FORKS    PTCLDY    36  30  79 NW16G23   29.68R WCI  26
FARGO          CLEAR     34  28  79 W12       29.71R WCI  25
BUFFALO SD     CLEAR     37  30  76 W9        29.92R WCI  30
RAPID CITY     CLEAR     48  28  46 NW6       30.00S
$$

REGIONAL REPORTS...WYOMING/IDAHO/WASHINGTON
CITY           SKY/WX    TMP DP  RH WIND       PRES   REMARKS
GILLETTE       MOCLDY    39  28  65 W9        30.11R WCI  33
SHERIDAN       CLEAR     43  27  53 CALM      30.09S
CODY           CLEAR     30  28  92 NE7       30.21R WCI  23
YELLOWSTONE LA PTCLDY    10   7  88 CALM      30.46S
SALMON         CLOUDY    25  21  85 CALM      30.41S VSB M1/4
MULLAN PASS    CLOUDY    43  27  53 S10       30.16S
SAND POINT     FOG       34  34 100 CALM      30.14S VSB M1/4
SPOKANE        FOG       36  36 100 NE7       30.09F VSB M1/4 WCI  30
$$

REGIONAL REPORTS...ALBERTA
CITY           SKY/WX    TMP DP  RH WIND       PRES   REMARKS
CALGARY        PTCLDY    36  27  70 CALM      29.86S
LETHBRIDGE     MOCLDY    54  25  33 SW20G33   29.89F
MEDICINE HAT   MOCLDY    39  34  82 SW9G17    29.88R WCI  33
EDMONTON       PTCLDY    30  27  89 N3        29.86S
WATERTON GATE  N/A       54  18  24 SW12       N/A
CARDSTON       N/A       52  25  35 SW10       N/A
MILK RIVER     N/A       43  34  71 SW7        N/A
$$

REGIONAL REPORTS...SASKATCHEWAN
CITY           SKY/WX    TMP DP  RH WIND       PRES   REMARKS
SWIFT CURRENT  SQUALL    32  28  85 E47G108   29.90S WCI  15
MOOSE JAW      MOCLDY    34  30  85 W8        29.91R WCI  27
REGINA         MOCLDY    34  30  85 W10       29.89R WCI  26
VAL MARIE      N/A       23  23 100 CALM       N/A
ASSINIBOIA     N/A       30  27  89 SW3        N/A
CORONACH       N/A       30  27  89 W5         N/A   WCI  25

$$




USA.gov is the U.S. government's official web portal to all federal, state and local government web resources and services.